sat.trackr.live / text

‹ back to catalog

STARLINK-33571

NORAD 63386 · 2025-063Z

PAYLOAD ACTIVE UNKNOWN

§ Identity

Operator
Country
US
Launch date
2025-03-26
Launch site
AFWTR
Launch vehicle
Mass (kg)
RCS (m²)

Purposes: comms

External: N2YO · Heavens-Above · Gunter

§ Orbital elements

Epoch: 2026-05-25T04:16:43.017888Z

Period
93.85 min
Inclination
53.1599°
Eccentricity
0.0001054
Mean motion
15.34410838 rev/d
Perigee alt
462.0 km
Apogee alt
463.4 km
Semi-major
6,840.8 km
B*
1.0220e-3
RAAN
66.8573°
Arg perigee
70.7503°
Mean anomaly
289.3614°
Rev number
6,628

§ Raw data

STARLINK-335711 63386U 25063Z   26145.17827567  .00034324  00000+0  10220-2 0  99952 63386  53.1599  66.8573 0001054  70.7503 289.3614 15.34410838 66289

JSON: /api/v1/satellites/63386 · /tle

For live sub-satellite position, see the globe view (requires WebGL).

§ Visibility from observer

Set your observer location to see the next 7 days of passes ≥ 10°. The values pass through the URL so the page stays shareable.

No JS? Fill the form by hand. The geolocation button needs JavaScript.